Flag Weather past 2 weeks in Vancouver, British Columbia, Canada

Now
45 °F

Rain. Mostly cloudy.


Feels Like: 42 °F
Forecast: 43 / 54 °F
Wind: 5 mph from Northeast

Location: Vancouver International Air-Port

Current Time: Nov 25, 2014 at 5:30:11 PM

Latest Report: Nov 25, 2014 at 5:00 PM


Visibility: 8 mi

Pressure: 30.18 "Hg

Humidity: 93%

Dew point: 43 °F

Location of VancouverLocation

Historic Weather in Vancouver — Graph

°F

Vancouver temperature yesterday

Maximum temperature yesterday: 46 °F (at 10:00 AM)
Minimum temperature yesterday: 39 °F (at 12:00 AM)
Average temperature yesterday: 44 °F

Past Weeks' High & Low Weather Summary

 TemperatureHumidityPressure
High50 °F (Nov 20, 10:00 AM)100% (Nov 18, 3:00 AM)30.57 "Hg (Nov 18, 3:00 AM)
Low23 °F (Nov 14, 6:00 AM)25% (Nov 11, 12:00 PM)29.26 "Hg (Nov 21, 7:00 PM)
Average40 °F79%30.13 "Hg
* Reported Nov 10 4:00 PM — Nov 25 4:00 PM, Vancouver, Weather by CustomWeather, © 2014

Note: Actual official high and low records may vary slightly from our data, if they occured in-between our weather recording intervals... More about our weather records

Advertising

Vancouver weather history for previous 24 hours

 ConditionsComfort  
Time TempWeatherWind HumidityBarometerVisibility
4:00 PM
Nov 25
45 °FRain. Fog.7 mph93%30.19 "Hg5 mi
3:00 PM45 °FLight rain. Fog.3 mph93%30.21 "Hg6 mi
2:00 PM45 °FLight rain. Fog.No wind93%30.21 "Hg4 mi
1:55 PM45 °FLight rain. Fog.No wind93%30.22 "Hg6 mi
1:00 PM45 °FLight rain. Mostly cloudy.7 mph93%30.23 "Hg7 mi
12:00 PM45 °FLight rain. Mostly cloudy.6 mph100%30.24 "Hg7 mi
11:00 AM46 °FLight rain. Fog.3 mph93%30.23 "Hg5 mi
10:00 AM45 °FLight rain. Mostly cloudy.2 mph93%30.24 "Hg12 mi
9:00 AM45 °FLight rain. Cloudy.No wind93%30.23 "Hg15 mi
8:00 AM45 °FLight rain. Mostly cloudy.3 mph93%30.22 "Hg8 mi
7:00 AM45 °FLight rain. Mostly cloudy.2 mph93%30.20 "Hg10 mi
6:48 AM45 °FLight rain. Overcast.No wind93%30.20 "Hg10 mi
6:00 AM43 °FLight rain. Mostly cloudy.2 mph93%30.19 "Hg15 mi
5:00 AM43 °FLight rain. Overcast.7 mph93%30.18 "Hg15 mi
4:00 AM45 °FLight rain. Overcast.10 mph87%30.16 "Hg15 mi
3:53 AM43 °FLight rain. Mostly cloudy.9 mph93%30.16 "Hg15 mi
3:00 AM45 °FMostly cloudy.7 mph93%30.15 "Hg20 mi
2:00 AM45 °FLight rain. Overcast.5 mph93%30.15 "Hg12 mi
1:54 AM45 °FLight rain. Overcast.5 mph93%30.15 "Hg12 mi
1:00 AM45 °FLight rain. Overcast.5 mph93%30.13 "Hg12 mi
12:00 AM45 °FLight rain. Overcast.7 mph93%30.12 "Hg15 mi
11:00 PM
Nov 24
45 °FLight rain. Low clouds.7 mph93%30.09 "Hg15 mi
10:00 PM45 °FLight rain. Fog.8 mph93%30.08 "Hg4 mi
9:00 PM45 °FLight rain. Fog.13 mph93%30.07 "Hg4 mi
8:00 PM45 °FLight rain. Fog.13 mph100%30.07 "Hg6 mi
7:52 PM45 °FLight rain. Fog.10 mph93%30.06 "Hg6 mi
7:00 PM45 °FLight rain. Fog.9 mph93%30.08 "Hg4 mi
6:00 PM45 °FLight rain. Mostly cloudy.9 mph93%30.09 "Hg8 mi
5:00 PM45 °FLight rain. Mostly cloudy.12 mph93%30.11 "Hg8 mi
Weather by CustomWeather, © 2014

See weather overviewHow to use our weather pages